Weather History for KHLC - September, 2012

Change the Weather History Date:

Sunday, September 2, 2012

  Actual Average Record
Temperature  
Mean Temperature 86 °F 73 °F  
Max Temperature 105 °F 87 °F 112 °F (1939)
Min Temperature 66 °F 59 °F 40 °F (1924)
Cooling Degree Days 19    
Growing Degree Days 34 (Base 50)    
Moisture  
Dew Point 55 °F    
Average Humidity 42    
Maximum Humidity 81    
Minimum Humidity 13    
Precipitation  
Precipitation 0.00 in 0.08 in 0.15 in (2011)
Month to date precipitation 0.00 0.17  
Year to date precipitation 6.83 18.05  
Sea Level Pressure  
Sea Level Pressure 29.83 in    
Wind  
Wind Speed 6 mph (SSW)    
Max Wind Speed 10 mph    
Max Gust Speed 16 mph    
Visibility 10 miles    
Events      
T = Trace of Precipitation, MM = Missing Value Source: NWS Daily Summary

Daily Weather History Graph

Daily Weather History Graph

Search for Another Location

Airport or City:

Trip Planner

Search our weather history database for the weather conditions in past years. The results will help you decide how hot, cold, wet, or windy it might be!

Date:

Astronomy

Sep. 02, 2012 Rise Set
Actual Time 7:09 AM CDT 8:07 PM CDT
Civil Twilight 6:41 AM CDT 8:35 PM CDT
Nautical Twilight 6:09 AM CDT 9:07 PM CDT
Astronomical Twilight 5:35 AM CDT 9:41 PM CDT
Moon 8:57 PM CDT (9/2) 9:18 AM CDT (9/2)
Length of Visible Light 13h 53m
Length of Day
12h 58m
Waning Gibbous, 95% of the Moon is Illuminated
Sep 2
Waning Gibbous
Sep 8
Last Quarter
Sep 15
New
Sep 22
First Quarter
Sep 29
Full

Hourly Weather History & Observations

Time (CDT) Temp. Heat Index Dew Point Humidity Pressure Visibility Wind Dir Wind Speed Gust Speed Precip Events Conditions
12:53 AM 75.9 °F - 61.0 °F 60% 29.91 in 10.0 mi SSE 5.8 mph - N/A   Clear
1:53 AM 73.0 °F - 61.0 °F 66% 29.91 in 10.0 mi Calm Calm - N/A   Clear
2:53 AM 73.0 °F - 62.1 °F 68% 29.91 in 10.0 mi North - - N/A   Clear
3:53 AM 71.1 °F - 62.1 °F 73% 29.90 in 10.0 mi South 6.9 mph - N/A   Clear
5:53 AM 69.1 °F - 61.0 °F 75% 29.89 in 10.0 mi South 4.6 mph - N/A   Clear
6:53 AM 66.9 °F - 61.0 °F 81% 29.88 in 10.0 mi Calm Calm - N/A   Clear
7:53 AM 68.0 °F - 61.0 °F 78% 29.90 in 10.0 mi Calm Calm - N/A   Clear
8:53 AM 73.9 °F - 62.1 °F 66% 29.89 in 10.0 mi SSE 5.8 mph - N/A   Clear
9:53 AM 84.0 °F 83.8 °F 59.0 °F 43% 29.87 in 10.0 mi South 10.4 mph - N/A   Clear
11:53 AM 91.9 °F 89.5 °F 54.0 °F 27% 29.86 in 10.0 mi SSW 10.4 mph - N/A   Clear
12:53 PM 96.1 °F 93.5 °F 53.1 °F 23% 29.84 in 10.0 mi SW 8.1 mph - N/A   Clear
1:53 PM 100.0 °F - 52.0 °F 20% 29.82 in 10.0 mi WSW 9.2 mph 16.1 mph N/A   Clear
2:53 PM 102.0 °F - 50.0 °F 17% 29.80 in 10.0 mi SW 6.9 mph - N/A   Clear
3:53 PM 102.9 °F - 46.9 °F 15% 29.78 in 10.0 mi SW 10.4 mph 16.1 mph N/A   Clear
4:53 PM 102.9 °F - 43.0 °F 13% 29.76 in 10.0 mi SW 5.8 mph - N/A   Clear
5:53 PM 102.9 °F - 44.1 °F 14% 29.75 in 10.0 mi WSW 5.8 mph - N/A   Clear
6:53 PM 102.0 °F - 44.1 °F 14% 29.75 in 10.0 mi South 5.8 mph - N/A   Clear
7:53 PM 95.0 °F - 46.0 °F 19% 29.76 in 10.0 mi SSE 5.8 mph - N/A   Clear
8:53 PM 86.0 °F - 50.0 °F 29% 29.78 in 10.0 mi Calm Calm - N/A   Clear
9:53 PM 81.0 °F 80.4 °F 53.1 °F 38% 29.80 in 10.0 mi North 10.4 mph - N/A   Clear
10:53 PM 82.9 °F 82.1 °F 55.9 °F 39% 29.80 in 10.0 mi NNE 10.4 mph - N/A   Clear
11:53 PM 77.0 °F - 57.9 °F 52% 29.80 in 10.0 mi East 6.9 mph - N/A   Clear